Powrót do katalogu

ONEWEB-0332

AktywnyŁącznośćPO
NORAD 49279·PAYLOAD·🇬🇧 United Kingdom

Wystrzelony Oct 14, 2021 z Vostochny Cosmodrome

Loading…

Następne Przeloty (najbliższe 24 godziny)

TLE

ŚwieżeSource: CelesTrak SupGP

Epoka: Sep 14, 2026, 16:06 UTC

1 49279C 21090A   26257.67102266 -.00001221  00000+0 -32970-2 0  2572
2 49279  87.8893 271.8633 0002033  88.1331 334.8576 13.14502937    10

Śledź ONEWEB-0332 w czasie rzeczywistym z AllMySat

Download on the App Store